Weather in Pleshanovo

Russia / Orenburg Oblast     52°50′42″N   53°29′20″E
temp.,
°C
wind,
m/s
gust,
m/s
humid.,
%
clouds,
%
prec.,
mm/h
press.,
hPa
HPBL,
m
26 february, fri
fri2623:00−21s5998100 0.3 1028330
02:00−21s51097100 0.7 1026410
05:00−20sse61196100 0.9 1025414
08:00−18se61294100 0.1 1023453
11:00−17se71093100 0.3 1022491
14:00−16se71189100 0.0 1022534
17:00−15se61089100 0.0 1022583
20:00−17se6129498 0.0 1020302
27 february, sat
sat2723:00−16sse7149399 0.0 1017382
02:00−13sse81594100 0.2 1011526
05:00−11sse91794100 3.3 1007580
08:00−9sse81494100 4.0 1003548
11:00−5sse6995100 4.8 1001303
14:000ssw48100100 0.7 1000342
17:000wsw5999100 0.9 1000478
20:000sw4996100 0.2 1000447
28 february, sun
sun2823:00−2ssw499798 0.4 1000263
02:00−2ssw4997100 0.3 998290
05:00−2ssw3898100 1.2 998341
08:00−2ssw3798100 1.1 998303
11:00−4wsw4696100 1.6 1000245
14:00−3wsw459696 0.4 1002284
17:00−5nw689496 0.8 1005311
20:00−10nw489594 0.2 1008270
1 march, mon
mon123:00−13nnw379587 0.3 1011183
02:00−16nnw339683 0.1 101347
05:00−16nw359685 0.2 1015153
08:00−19nnw339685 0.1 101677
11:00−17nnw359379 0.1 1018225
14:00−16nnw359329 0.0 1020262
17:00−16nw359350 0.0 1021254
20:00−21nw229811 0.0 102220
2 march, tue
tue223:00−22nw221009 0.0 102320
02:00−23w2210052 0.0 102220
05:00−23wsw2210053 0.0 102220
08:00−24sw239926 0.0 102020
11:00−19ssw479557 0.0 1018237
14:00−15ssw7119399 0.0 1015358
17:00−13ssw7139499 0.7 1012537
20:00−11ssw61194100 0.8 1009512